Benton Harbor, MI

1:52 PM EDT on August 26, 2016 (GMT -0400)
Southwest Michigan Regional

Weather History for KBEH - December, 2012

Change the Weather History Date:

Saturday, December 15, 2012

  Actual Average Record
Temperature  
Mean Temperature 44 °F -  
Max Temperature 50 °F 37 °F 62 °F (1971)
Min Temperature 37 °F 23 °F -5 °F (1989)
Degree Days  
Heating Degree Days 22    
Moisture  
Dew Point 41 °F    
Average Humidity 88    
Maximum Humidity 100    
Minimum Humidity 62    
Precipitation  
Precipitation 0.24 in - - ()
Sea Level Pressure  
Sea Level Pressure 29.76 in    
Wind  
Wind Speed 9 mph (SSE)    
Max Wind Speed 16 mph    
Max Gust Speed 23 mph    
Visibility 6 miles    
Events Rain    
Averages and records for this station are not official NWS values.
T = Trace of Precipitation, MM = Missing Value Source: NWS Daily Summary

Daily Weather History Graph

Daily Weather History Graph

Search for Another Location

Airport or City:

Trip Planner

Search our weather history database for the weather conditions in past years. The results will help you decide how hot, cold, wet, or windy it might be!

Date:

Astronomy

Dec. 15, 2012 Rise Set
Actual Time 8:07 AM EST 5:14 PM EST
Civil Twilight 7:35 AM EST 5:46 PM EST
Nautical Twilight 7:00 AM EST 6:21 PM EST
Astronomical Twilight 6:26 AM EST 6:55 PM EST
Moon 9:58 AM EST (12/15) 8:20 PM EST (12/15)
Length of Visible Light 10h 10m
Length of Day
9h 07m
Waxing Crescent, 8% of the Moon is Illuminated
Dec 15
Waxing Crescent
Dec 20
First Quarter
Dec 28
Full
Jan 4
Last Quarter
Jan 11
New

Hourly Weather History & Observations

Time (EST) Temp. Windchill Dew Point Humidity Pressure Visibility Wind Dir Wind Speed Gust Speed Precip Events Conditions
12:53 AM 37.0 °F 32.4 °F 30.9 °F 79% 30.09 in 10.0 mi SE 5.8 mph - N/A   Clear
1:53 AM 37.9 °F 33.5 °F 30.9 °F 76% 30.08 in 10.0 mi SE 5.8 mph - N/A   Clear
2:53 AM 39.0 °F 34.8 °F 30.9 °F 73% 30.07 in 10.0 mi SE 5.8 mph - N/A   Clear
3:53 AM 39.9 °F 35.8 °F 30.9 °F 70% 30.04 in 10.0 mi SE 5.8 mph - N/A   Clear
4:53 AM 41.0 °F 38.0 °F 30.9 °F 67% 30.04 in 10.0 mi SSE 4.6 mph - N/A   Clear
5:53 AM 39.9 °F 35.8 °F 30.9 °F 70% 30.03 in 10.0 mi ESE 5.8 mph - N/A   Clear
6:53 AM 39.9 °F 35.8 °F 30.9 °F 70% 30.02 in 10.0 mi ESE 5.8 mph - N/A   Mostly Cloudy
7:53 AM 42.1 °F 36.6 °F 30.0 °F 62% 29.98 in 10.0 mi SE 9.2 mph - N/A   Overcast
9:53 AM 43.0 °F 35.4 °F 33.1 °F 68% 29.88 in 8.0 mi East 16.1 mph 21.9 mph 0.00 in Rain Light Rain
10:53 AM 43.0 °F 36.0 °F 35.1 °F 74% 29.88 in 8.0 mi ESE 13.8 mph - 0.00 in Rain Light Rain
11:53 AM 45.0 °F 39.3 °F 37.0 °F 74% 29.83 in 10.0 mi SSE 11.5 mph 17.3 mph 0.02 in   Overcast
12:53 PM 44.1 °F 37.7 °F 39.0 °F 82% 29.78 in 5.0 mi SE 12.7 mph - 0.01 in Rain Light Rain
1:43 PM 44.6 °F 38.4 °F 41.0 °F 87% 29.74 in 1.8 mi SE 12.7 mph - 0.05 in Rain Rain
1:53 PM 43.0 °F 36.0 °F 41.0 °F 93% 29.75 in 1.5 mi SE 13.8 mph 20.7 mph 0.07 in Rain Light Rain
1:58 PM 42.8 °F 37.0 °F 41.0 °F 93% 29.73 in 2.5 mi SSE 10.4 mph 20.7 mph 0.00 in Rain Light Rain
2:05 PM 44.6 °F 38.1 °F 42.8 °F 93% 29.72 in 4.0 mi SE 13.8 mph 18.4 mph 0.00 in   Overcast
2:18 PM 44.6 °F 38.4 °F 42.8 °F 93% 29.71 in 2.5 mi SE 12.7 mph - 0.00 in   Overcast
2:36 PM 44.6 °F 37.8 °F 42.8 °F 93% 29.71 in 3.0 mi SE 15.0 mph 20.7 mph 0.00 in   Overcast
2:53 PM 45.0 °F 38.9 °F 43.0 °F 93% 29.72 in 7.0 mi SE 12.7 mph 18.4 mph 0.00 in   Overcast
3:04 PM 44.6 °F 39.2 °F 42.8 °F 93% 29.69 in 8.0 mi SSE 10.4 mph - N/A   Overcast
3:15 PM 46.4 °F 41.1 °F 42.8 °F 87% 29.69 in 6.0 mi SSE 11.5 mph 23.0 mph N/A   Overcast
3:53 PM 46.0 °F 40.2 °F 44.1 °F 93% 29.69 in 8.0 mi SSE 12.7 mph - 0.00 in   Overcast
4:20 PM 44.6 °F 39.7 °F 44.6 °F 100% 29.66 in 2.5 mi SSE 9.2 mph - 0.01 in Rain Light Rain
4:28 PM 44.6 °F 40.2 °F 44.6 °F 100% 29.66 in 4.0 mi SSE 8.1 mph - 0.01 in   Overcast
4:37 PM 44.6 °F 39.2 °F 44.6 °F 100% 29.66 in 4.0 mi SSE 10.4 mph 19.6 mph 0.01 in   Overcast
4:53 PM 46.0 °F 41.0 °F 44.1 °F 93% 29.66 in 4.0 mi SSE 10.4 mph - 0.01 in Rain Light Rain
5:40 PM 46.4 °F 41.9 °F 44.6 °F 93% 29.64 in 7.0 mi SSE 9.2 mph - 0.00 in   Overcast
5:53 PM 46.0 °F 41.4 °F 45.0 °F 96% 29.65 in 5.0 mi SSE 9.2 mph - 0.01 in Rain Light Rain
6:53 PM 46.0 °F 41.9 °F 45.0 °F 96% 29.64 in 4.0 mi SSE 8.1 mph 16.1 mph 0.02 in Rain Light Rain
7:53 PM 46.9 °F - 46.0 °F 97% 29.63 in 7.0 mi SSE 11.5 mph - 0.01 in   Overcast
8:53 PM 48.9 °F - 46.9 °F 93% 29.62 in 6.0 mi South 10.4 mph - 0.00 in Rain Light Rain
9:42 PM 48.2 °F - 48.2 °F 100% 29.61 in 4.0 mi SSW 9.2 mph - 0.03 in Rain Light Rain
9:53 PM 48.9 °F - 48.0 °F 97% 29.62 in 2.5 mi South 6.9 mph - 0.04 in Rain Rain
10:32 PM 50.0 °F - 48.2 °F 94% 29.61 in 4.0 mi SW 12.7 mph - 0.05 in Rain Light Rain
10:47 PM 50.0 °F - 48.2 °F 94% 29.61 in 6.0 mi SSW 10.4 mph 18.4 mph 0.05 in   Overcast
10:53 PM 50.0 °F - 48.0 °F 93% 29.62 in 6.0 mi SSW 10.4 mph - 0.05 in   Overcast
11:28 PM 48.2 °F - 48.2 °F 100% 29.61 in 4.0 mi South 5.8 mph - 0.00 in   Overcast
11:36 PM 48.2 °F - 48.2 °F 100% 29.60 in 4.0 mi SSW 9.2 mph - 0.00 in   Overcast
11:53 PM 48.9 °F - 48.9 °F 100% 29.62 in 5.0 mi SSW 10.4 mph - 0.00 in   Overcast